sat.trackr.live / text

‹ back to catalog

STARLINK-33982

NORAD 63707 · 2025-087L

PAYLOAD ACTIVE UNKNOWN

§ Identity

Operator
Country
US
Launch date
2025-04-28
Launch site
AFWTR
Launch vehicle
Mass (kg)
RCS (m²)

Purposes: comms

External: N2YO · Heavens-Above · Gunter

§ Orbital elements

Epoch: 2026-09-20T08:46:24.434976Z

Period
93.85 min
Inclination
53.1602°
Eccentricity
0.0001055
Mean motion
15.34398971 rev/d
Perigee alt
462.0 km
Apogee alt
463.4 km
Semi-major
6,840.8 km
B*
2.9942e-4
RAAN
34.0109°
Arg perigee
96.5056°
Mean anomaly
263.6066°
Rev number
7,902

§ Raw data

STARLINK-339821 63707U 25087L   26263.36556059  .00009753  00000+0  29942-3 0  99952 63707  53.1602  34.0109 0001055  96.5056 263.6066 15.34398971 79028

JSON: /api/v1/satellites/63707 · /tle

For live sub-satellite position, see the globe view (requires WebGL).

§ Visibility from observer

Set your observer location to see the next 7 days of passes ≥ 10°. The values pass through the URL so the page stays shareable.

No JS? Fill the form by hand. The geolocation button needs JavaScript.